NOAA 16 DEB, 41282

Orbit data source: Space-Track

NOAA 16 DEB, 41282 is space debris in SSO originally from a launch on Thu, 21 Sep 2000 UTC launched from the Air Force Western Test Range (AFWTR). Debris objects in space refer to the collection of defunct objects orbiting the Earth. Examples of debris include non-operational satellites, rocket bodies, and fragments generated from explosions, collisions, or faulty payload assembly.

Loading next visibility...
Identifier
41282, 2000-055GJ
Orbit
SSO
Country
Flag of USUS
Related business
Manufacturer
Unknown
Mission
Spacecraft
Bus & Motor
Unknown
Mass
Unknown
Launch date (UTC)
2000-09-21 (25 years ago)
Launch vehicle
Unknown
Launch site
Air Force Western Test Range (AFWTR)
Object type
Payload
Rocket body
Debris
Shape & HBR
Unknown shape, 0.1 m
Radar Cross Section
Small (<0.1 m²)

Expand to show TLE details & history
Last TLE update: 1 day ago

TLE from 1 day ago
0 NOAA 16 DEB
1 41282U 00055GJ  25299.27800898  .00005454  00000-0  27611-2 0  9993
2 41282  98.7848 304.2234 0059034 282.8277  76.6305 14.15583590503431
Epoch: 2025-10-26T06:40Z
TLE epoch observation values (Epoch: 2025-10-26T06:40:19.975Z)
Latitude
-0.00007°
Longitude
169.24368°
Altitude
833.617 km
Speed
7.441 km/s
True Right ascension
20h 16m 53s
True Declination
0° 00' 00"
Sunlit
Object was in daylight at epoch
Visualization orbit readout
Latitude
Unknown
Longitude
Unknown
Altitude
Unknown
Speed
Unknown
Apparent Right ascension
Unknown
Apparent Declination
Unknown
Sunlit
N/A
Visualization observer readout
Local Sidereal Time
04:20:27
Azimuth
Unknown
Elevation
Unknown
Doppler factor
Unknown
Orbital elements
Apogee altitude
880.092 km
Perigee altitude
794.899 km
Semi-major axis
7,215.633 km
Eccentricity
0.0059
Inclination
98.7848°
RAAN
304.2234°
Arg. of periapsis
282.8277°
True anomaly
77.28976°
Mean anomaly
76.6305°
Eccentric anomaly
76.96002°
Mean motion
3.54105 °/min
Orbital period
101.66 mins
BSTAR
0.0027611
Loading maneuver chart data...
Computing Atmospheric mass density...
Loading historical data...
Loading historical data...
Loading historical data...
Loading historical data...
Loading historical data...
Loading historical data...
Loading historical data...

Documentation

Showing up to 5 results
|